| time (UTC) | temp C | wind direction | speed KPH | gust KPH | rain 1hr cm | rain 24hr cm | rain mn cm | humidity % | barometer mb |
| 20260502121408 | 18 | 136 | 8.0 | 9.7 | 0.00 | 0.00 | 0.00 | 27 | |
| 20260502120407 | 17 | 109 | 0.0 | 3.2 | 0.00 | 0.00 | 0.00 | 29 | |
| 20260502115407 | 16 | 133 | 0.0 | 0.0 | 0.00 | 0.00 | 0.00 | 29 | |
| 20260502114406 | 16 | 127 | 4.8 | 8.0 | 0.00 | 0.00 | 0.00 | 31 | |
| 20260502113407 | 16 | 136 | 4.8 | 6.4 | 0.00 | 0.00 | 0.00 | 30 | |
| 20260502112405 | 16 | 133 | 3.2 | 3.2 | 0.00 | 0.00 | 0.00 | 31 | |
| 20260502111404 | 15 | 133 | 4.8 | 8.0 | 0.00 | 0.00 | 0.00 | 33 | |
| 20260502110404 | 13 | 99 | 0.0 | 6.4 | 0.00 | 0.00 | 0.00 | 30 | |
| 20260502105406 | 13 | 158 | 0.0 | 6.4 | 0.00 | 0.00 | 0.00 | 32 | |
| 20260502105403 | 13 | 158 | 0.0 | 6.4 | 0.00 | 0.00 | 0.00 | 32 | |
| 20260502104519 | 13 | 132 | 4.8 | 6.4 | 0.00 | 0.00 | 0.00 | 32 | |
| 20260502104406 | 13 | 132 | 4.8 | 6.4 | 0.00 | 0.00 | 0.00 | 32 | |
| 20260502104403 | 13 | 132 | 4.8 | 6.4 | 0.00 | 0.00 | 0.00 | 32 | |
| 20260502103402 | 13 | 137 | 0.0 | 0.0 | 0.00 | 0.00 | 0.00 | 35 | |
| 20260502102401 | 13 | 137 | 0.0 | 0.0 | 0.00 | 0.00 | 0.00 | 35 | |
| 20260502101401 | 13 | 137 | 0.0 | 0.0 | 0.00 | 0.00 | 0.00 | 34 | |
| 20260502100400 | 13 | 137 | 0.0 | 0.0 | 0.00 | 0.00 | 0.00 | 34 | |
| 20260502091357 | 17 | 101 | 0.0 | 1.6 | 0.00 | 0.00 | 0.00 | 31 | |
| 20260502090358 | 17 | 135 | 0.0 | 4.8 | 0.00 | 0.00 | 0.00 | 31 | |
| 20260502071350 | 19 | 129 | 0.0 | 0.0 | 0.00 | 0.00 | 0.00 | 26 | |
| 20260502070350 | 21 | 129 | 0.0 | 6.4 | 0.00 | 0.00 | 0.00 | 23 | |
| 20260502065429 | 21 | 104 | 0.0 | 1.6 | 0.00 | 0.00 | 0.00 | 22 | |
| 20260502065349 | 21 | 104 | 0.0 | 1.6 | 0.00 | 0.00 | 0.00 | 22 | |
| 20260502064349 | 20 | 113 | 0.0 | 0.0 | 0.00 | 0.00 | 0.00 | 20 | |
| 20260502063348 | 20 | 127 | 4.8 | 4.8 | 0.00 | 0.00 | 0.00 | 22 | |
| 20260502062349 | 20 | 123 | 0.0 | 3.2 | 0.00 | 0.00 | 0.00 | 22 | |
| 20260502061347 | 20 | 180 | 0.0 | 0.0 | 0.00 | 0.00 | 0.00 | 100 | |
| 20260502060346 | 20 | 180 | 0.0 | 0.0 | 0.00 | 0.00 | 0.00 | 20 | |
| 20260502055346 | 19 | 180 | 0.0 | 0.0 | 0.00 | 0.00 | 0.00 | 21 | |
| 20260502054345 | 18 | 180 | 0.0 | 0.0 | 0.00 | 0.00 | 0.00 | 21 | |
| 20260502053345 | 17 | 180 | 0.0 | 0.0 | 0.00 | 0.00 | 0.00 | 22 | |
| 20260502052344 | 17 | 180 | 0.0 | 0.0 | 0.00 | 0.00 | 0.00 | 23 | |
| 20260502051343 | 15 | 180 | 0.0 | 0.0 | 0.00 | 0.00 | 0.00 | 24 | |
| 20260502050343 | 15 | 180 | 0.0 | 0.0 | 0.00 | 0.00 | 0.00 | 24 |